Data supplied by UK-AIR on 12/3/2019
All Data GMT hour ending 
Status: R =Ratified P=Provisional,P*=As supplied
,,Manchester Sharston,,,,,,,,,,,,,,,,,,,,,,,
Date,time,"Nitric oxide",status,unit,"Nitrogen dioxide",status,unit,"Nitrogen oxides as nitrogen dioxide",status,unit,"Ozone",status,unit
 
01-01-2018,01:00,1.51985,R,ugm-3,13.01696,R,ugm-3,15.34736,R,ugm-3,59.53838,R,ugm-3
01-01-2018,02:00,2.32199,R,ugm-3,10.03859,R,ugm-3,13.59893,R,ugm-3,61.46756,R,ugm-3
01-01-2018,03:00,1.67817,R,ugm-3,7.43177,R,ugm-3,10.00492,R,ugm-3,64.01208,R,ugm-3
01-01-2018,04:00,1.01323,R,ugm-3,6.46005,R,ugm-3,8.01365,R,ugm-3,66.35703,R,ugm-3
01-01-2018,05:00,2.02647,R,ugm-3,8.69472,R,ugm-3,11.80193,R,ugm-3,66.55660,R,ugm-3
01-01-2018,06:00,2.18478,R,ugm-3,13.26016,R,ugm-3,16.61012,R,ugm-3,62.91444,R,ugm-3
01-01-2018,07:00,2.31144,R,ugm-3,12.92026,R,ugm-3,16.46441,R,ugm-3,62.46541,R,ugm-3
01-01-2018,08:00,1.64650,R,ugm-3,13.11416,R,ugm-3,15.63876,R,ugm-3,59.52175,R,ugm-3
01-01-2018,09:00,1.64650,R,ugm-3,14.61976,R,ugm-3,17.14436,R,ugm-3,58.12476,R,ugm-3
01-01-2018,10:00,2.62807,R,ugm-3,25.59658,R,ugm-3,29.62623,R,ugm-3,51.93809,R,ugm-3
01-01-2018,11:00,3.13469,R,ugm-3,18.84596,R,ugm-3,23.65242,R,ugm-3,52.43702,R,ugm-3
01-01-2018,12:00,4.43289,R,ugm-3,24.67479,R,ugm-3,31.47180,R,ugm-3,50.89035,R,ugm-3
01-01-2018,13:00,5.22448,R,ugm-3,20.59555,R,ugm-3,28.60631,R,ugm-3,56.97724,R,ugm-3
01-01-2018,14:00,4.46456,R,ugm-3,16.17548,R,ugm-3,23.02104,R,ugm-3,57.92519,R,ugm-3
01-01-2018,15:00,6.45936,R,ugm-3,24.57878,R,ugm-3,34.48299,R,ugm-3,51.33938,R,ugm-3
01-01-2018,16:00,8.35917,R,ugm-3,30.50507,R,ugm-3,43.32229,R,ugm-3,50.29164,R,ugm-3
01-01-2018,17:00,2.24811,R,ugm-3,12.04601,R,ugm-3,15.49306,R,ugm-3,78.23144,R,ugm-3
01-01-2018,18:00,1.17155,R,ugm-3,8.88852,R,ugm-3,10.68487,R,ugm-3,78.28133,R,ugm-3
01-01-2018,19:00,0.85492,R,ugm-3,7.72272,R,ugm-3,9.03357,R,ugm-3,78.53080,R,ugm-3
01-01-2018,20:00,0.85492,R,ugm-3,7.13991,R,ugm-3,8.45076,R,ugm-3,78.48090,R,ugm-3
01-01-2018,21:00,0.69660,R,ugm-3,9.22823,R,ugm-3,10.29633,R,ugm-3,75.88649,R,ugm-3
01-01-2018,22:00,0.56994,R,ugm-3,8.54821,R,ugm-3,9.42211,R,ugm-3,75.93639,R,ugm-3
01-01-2018,23:00,0.79159,R,ugm-3,8.20836,R,ugm-3,9.42211,R,ugm-3,73.34198,R,ugm-3
01-01-2018,24:00,0.37996,R,ugm-3,6.70254,R,ugm-3,7.28514,R,ugm-3,73.19230,R,ugm-3
02-01-2018,01:00,0.54911,R,ugm-3,7.38362,R,ugm-3,8.22558,R,ugm-3,71.91172,R,ugm-3
02-01-2018,02:00,0.59135,R,ugm-3,9.90958,R,ugm-3,10.81631,R,ugm-3,64.59416,R,ugm-3
02-01-2018,03:00,2.85117,R,ugm-3,18.75057,R,ugm-3,23.12230,R,ugm-3,52.43702,R,ugm-3
02-01-2018,04:00,1.61566,R,ugm-3,17.24465,R,ugm-3,19.72196,R,ugm-3,52.53680,R,ugm-3
02-01-2018,05:00,2.91453,R,ugm-3,20.64505,R,ugm-3,25.11393,R,ugm-3,46.15056,R,ugm-3
02-01-2018,06:00,3.51644,R,ugm-3,24.09399,R,ugm-3,29.48579,R,ugm-3,44.70368,R,ugm-3
02-01-2018,07:00,2.47101,R,ugm-3,18.41052,R,ugm-3,22.19935,R,ugm-3,50.29164,R,ugm-3
02-01-2018,08:00,3.64316,R,ugm-3,20.79081,R,ugm-3,26.37691,R,ugm-3,50.99014,R,ugm-3
02-01-2018,09:00,4.78362,R,ugm-3,28.07731,R,ugm-3,35.41209,R,ugm-3,43.95529,R,ugm-3
02-01-2018,10:00,2.97788,R,ugm-3,21.17939,R,ugm-3,25.74542,R,ugm-3,48.34583,R,ugm-3
02-01-2018,11:00,2.85117,R,ugm-3,23.60820,R,ugm-3,27.97992,R,ugm-3,46.35013,R,ugm-3
02-01-2018,12:00,3.45308,R,ugm-3,22.97674,R,ugm-3,28.27138,R,ugm-3,48.09637,R,ugm-3
02-01-2018,13:00,4.46683,R,ugm-3,25.93994,R,ugm-3,32.78897,R,ugm-3,42.70798,R,ugm-3
02-01-2018,14:00,5.41722,R,ugm-3,24.43412,R,ugm-3,32.74040,R,ugm-3,44.20476,R,ugm-3
02-01-2018,15:00,6.27256,R,ugm-3,24.72562,R,ugm-3,34.34341,R,ugm-3,40.96174,R,ugm-3
02-01-2018,16:00,4.56187,R,ugm-3,24.19119,R,ugm-3,31.18596,R,ugm-3,41.31099,R,ugm-3
02-01-2018,17:00,5.98745,R,ugm-3,31.33197,R,ugm-3,40.51260,R,ugm-3,39.01594,R,ugm-3
02-01-2018,18:00,13.43216,R,ugm-3,33.80972,R,ugm-3,54.40541,R,ugm-3,46.94884,R,ugm-3
02-01-2018,19:00,4.08667,R,ugm-3,17.68195,R,ugm-3,23.94809,R,ugm-3,61.06842,R,ugm-3
02-01-2018,20:00,1.71070,R,ugm-3,14.52438,R,ugm-3,17.14742,R,ugm-3,64.81036,R,ugm-3
02-01-2018,21:00,1.55230,R,ugm-3,9.56960,R,ugm-3,11.94976,R,ugm-3,70.74757,R,ugm-3
02-01-2018,22:00,3.57980,R,ugm-3,12.43569,R,ugm-3,17.92464,R,ugm-3,66.00778,R,ugm-3
02-01-2018,23:00,0.85535,R,ugm-3,8.11228,R,ugm-3,9.42379,R,ugm-3,77.28348,R,ugm-3
02-01-2018,24:00,1.61566,R,ugm-3,13.84431,R,ugm-3,16.32162,R,ugm-3,68.95144,R,ugm-3
03-01-2018,01:00,1.14105,R,ugm-3,9.19822,R,ugm-3,10.94780,R,ugm-3,74.37309,R,ugm-3
03-01-2018,02:00,0.38035,R,ugm-3,4.21052,R,ugm-3,4.79371,R,ugm-3,83.61983,R,ugm-3
03-01-2018,03:00,0.38035,R,ugm-3,3.98379,R,ugm-3,4.56698,R,ugm-3,87.21209,R,ugm-3
03-01-2018,04:00,0.38035,R,ugm-3,2.78536,R,ugm-3,3.36856,R,ugm-3,87.26198,R,ugm-3
03-01-2018,05:00,0.25357,R,ugm-3,3.54658,R,ugm-3,3.93538,R,ugm-3,83.56994,R,ugm-3
03-01-2018,06:00,0.53883,R,ugm-3,4.08089,R,ugm-3,4.90708,R,ugm-3,80.47660,R,ugm-3
03-01-2018,07:00,0.79239,R,ugm-3,6.60719,R,ugm-3,7.82217,R,ugm-3,79.07961,R,ugm-3
03-01-2018,08:00,3.10618,R,ugm-3,13.55377,R,ugm-3,18.31652,R,ugm-3,72.44391,R,ugm-3
03-01-2018,09:00,4.18383,R,ugm-3,19.09196,R,ugm-3,25.50708,R,ugm-3,68.80176,R,ugm-3
03-01-2018,10:00,2.50396,R,ugm-3,12.58235,R,ugm-3,16.42170,R,ugm-3,74.93854,R,ugm-3
03-01-2018,11:00,2.44057,R,ugm-3,10.88191,R,ugm-3,14.62406,R,ugm-3,75.88649,R,ugm-3
03-01-2018,12:00,2.78922,R,ugm-3,11.46477,R,ugm-3,15.74151,R,ugm-3,74.19015,R,ugm-3
03-01-2018,13:00,4.15214,R,ugm-3,13.16462,R,ugm-3,19.53114,R,ugm-3,72.89294,R,ugm-3
03-01-2018,14:00,3.83518,R,ugm-3,14.71948,R,ugm-3,20.60001,R,ugm-3,71.19660,R,ugm-3
03-01-2018,15:00,4.05705,R,ugm-3,17.53730,R,ugm-3,23.75803,R,ugm-3,68.55230,R,ugm-3
03-01-2018,16:00,6.56101,R,ugm-3,25.89276,R,ugm-3,35.95284,R,ugm-3,60.56950,R,ugm-3
03-01-2018,17:00,10.33280,R,ugm-3,32.69293,R,ugm-3,48.53634,R,ugm-3,54.23315,R,ugm-3
03-01-2018,18:00,9.69889,R,ugm-3,30.11822,R,ugm-3,44.98964,R,ugm-3,58.37423,R,ugm-3
03-01-2018,19:00,5.07131,R,ugm-3,20.16042,R,ugm-3,27.93633,R,ugm-3,64.81036,R,ugm-3
03-01-2018,20:00,4.65927,R,ugm-3,19.57759,R,ugm-3,26.72171,R,ugm-3,64.46111,R,ugm-3
03-01-2018,21:00,3.23296,R,ugm-3,16.56598,R,ugm-3,21.52312,R,ugm-3,67.10541,R,ugm-3
03-01-2018,22:00,1.77496,R,ugm-3,10.63929,R,ugm-3,13.36085,R,ugm-3,71.49595,R,ugm-3
03-01-2018,23:00,1.52139,R,ugm-3,11.22242,R,ugm-3,13.55519,R,ugm-3,69.50025,R,ugm-3
03-01-2018,24:00,1.26783,R,ugm-3,14.81782,R,ugm-3,16.76180,R,ugm-3,65.90799,R,ugm-3
04-01-2018,01:00,1.22619,R,ugm-3,10.36545,R,ugm-3,12.24559,R,ugm-3,64.72720,R,ugm-3
04-01-2018,02:00,0.76108,R,ugm-3,9.32924,R,ugm-3,10.49622,R,ugm-3,62.13279,R,ugm-3
04-01-2018,03:00,1.20505,R,ugm-3,9.37740,R,ugm-3,11.22512,R,ugm-3,64.61079,R,ugm-3
04-01-2018,04:00,0.76108,R,ugm-3,9.47502,R,ugm-3,10.64200,R,ugm-3,62.91444,R,ugm-3
04-01-2018,05:00,0.85622,R,ugm-3,9.37774,R,ugm-3,10.69059,R,ugm-3,60.96864,R,ugm-3
04-01-2018,06:00,1.30018,R,ugm-3,11.85559,R,ugm-3,13.84917,R,ugm-3,59.42197,R,ugm-3
04-01-2018,07:00,1.93442,R,ugm-3,12.72966,R,ugm-3,15.69573,R,ugm-3,60.32003,R,ugm-3
04-01-2018,08:00,2.98091,R,ugm-3,19.53176,R,ugm-3,24.10242,R,ugm-3,58.37423,R,ugm-3
04-01-2018,09:00,3.42487,R,ugm-3,34.88690,R,ugm-3,40.13830,R,ugm-3,46.25035,R,ugm-3
04-01-2018,10:00,4.15425,R,ugm-3,30.22122,R,ugm-3,36.59097,R,ugm-3,52.83616,R,ugm-3
04-01-2018,11:00,4.02740,R,ugm-3,21.13434,R,ugm-3,27.30960,R,ugm-3,53.38498,R,ugm-3
04-01-2018,12:00,4.43965,R,ugm-3,20.35644,R,ugm-3,27.16382,R,ugm-3,52.78627,R,ugm-3
04-01-2018,13:00,5.23245,R,ugm-3,18.16897,R,ugm-3,26.19194,R,ugm-3,55.43057,R,ugm-3
04-01-2018,14:00,12.74814,R,ugm-3,35.16950,R,ugm-3,54.71638,R,ugm-3,48.19616,R,ugm-3
04-01-2018,15:00,4.24938,R,ugm-3,19.67632,R,ugm-3,26.19194,R,ugm-3,62.86455,R,ugm-3
04-01-2018,16:00,4.02740,R,ugm-3,18.21872,R,ugm-3,24.39398,R,ugm-3,69.20090,R,ugm-3
04-01-2018,17:00,3.67857,R,ugm-3,15.15766,R,ugm-3,20.79806,R,ugm-3,74.43961,R,ugm-3
04-01-2018,18:00,3.67857,R,ugm-3,19.09374,R,ugm-3,24.73414,R,ugm-3,72.44391,R,ugm-3
04-01-2018,19:00,5.39101,R,ugm-3,26.52691,R,ugm-3,34.79301,R,ugm-3,63.26369,R,ugm-3
04-01-2018,20:00,7.80110,R,ugm-3,40.08221,R,ugm-3,52.04373,R,ugm-3,47.44777,R,ugm-3
04-01-2018,21:00,7.13516,R,ugm-3,37.02145,R,ugm-3,47.96187,R,ugm-3,48.29594,R,ugm-3
04-01-2018,22:00,12.90670,R,ugm-3,50.57351,R,ugm-3,70.36351,R,ugm-3,32.82927,R,ugm-3
04-01-2018,23:00,11.76508,R,ugm-3,47.70759,R,ugm-3,65.74712,R,ugm-3,31.58195,R,ugm-3
04-01-2018,24:00,4.72506,R,ugm-3,33.47644,R,ugm-3,40.72142,R,ugm-3,40.01379,R,ugm-3
05-01-2018,01:00,4.23039,R,ugm-3,27.14626,R,ugm-3,33.63276,R,ugm-3,46.83243,R,ugm-3
05-01-2018,02:00,1.26912,R,ugm-3,15.09724,R,ugm-3,17.04319,R,ugm-3,50.02555,R,ugm-3
05-01-2018,03:00,1.68158,R,ugm-3,14.48101,R,ugm-3,17.05939,R,ugm-3,49.09422,R,ugm-3
05-01-2018,04:00,2.63342,R,ugm-3,16.61811,R,ugm-3,20.65596,R,ugm-3,45.80132,R,ugm-3
05-01-2018,05:00,1.52294,R,ugm-3,10.83607,R,ugm-3,13.17121,R,ugm-3,52.68648,R,ugm-3
05-01-2018,06:00,3.29970,R,ugm-3,24.24769,R,ugm-3,29.30716,R,ugm-3,39.66454,R,ugm-3
05-01-2018,07:00,3.93426,R,ugm-3,26.38526,R,ugm-3,32.41770,R,ugm-3,42.95744,R,ugm-3
05-01-2018,08:00,3.58525,R,ugm-3,34.16213,R,ugm-3,39.65944,R,ugm-3,40.81207,R,ugm-3
05-01-2018,09:00,33.02873,R,ugm-3,61.67646,R,ugm-3,112.31980,R,ugm-3,5.98710,R,ugm-3
05-01-2018,10:00,18.59254,R,ugm-3,62.81546,R,ugm-3,91.32363,R,ugm-3,10.87657,R,ugm-3
05-01-2018,11:00,15.26111,R,ugm-3,54.55796,R,ugm-3,77.95801,R,ugm-3,19.45808,R,ugm-3
05-01-2018,12:00,30.83951,R,ugm-3,66.15107,R,ugm-3,113.43765,R,ugm-3,12.27356,R,ugm-3
05-01-2018,13:00,50.63771,R,ugm-3,72.10014,R,ugm-3,149.74354,R,ugm-3,14.51872,R,ugm-3
05-01-2018,14:00,17.41861,R,ugm-3,56.54750,R,ugm-3,83.25566,R,ugm-3,35.12432,R,ugm-3
05-01-2018,15:00,8.88381,R,ugm-3,49.26966,R,ugm-3,62.89131,R,ugm-3,38.16776,R,ugm-3
05-01-2018,16:00,13.32571,R,ugm-3,60.15006,R,ugm-3,80.58253,R,ugm-3,22.75098,R,ugm-3
05-01-2018,17:00,95.24711,R,ugm-3,91.23265,R,ugm-3,237.27619,R,ugm-3,4.19097,R,ugm-3
05-01-2018,18:00,124.27813,R,ugm-3,95.85593,R,ugm-3,286.41307,R,ugm-3,2.44473,R,ugm-3
05-01-2018,19:00,118.53538,R,ugm-3,97.17660,R,ugm-3,278.92832,R,ugm-3,2.49463,R,ugm-3
05-01-2018,20:00,117.61527,R,ugm-3,89.54740,R,ugm-3,269.88830,R,ugm-3,2.54452,R,ugm-3
05-01-2018,21:00,142.74376,R,ugm-3,76.24216,R,ugm-3,295.11287,R,ugm-3,2.24516,R,ugm-3
05-01-2018,22:00,164.31872,R,ugm-3,70.91290,R,ugm-3,322.86476,R,ugm-3,2.84387,R,ugm-3
05-01-2018,23:00,167.33287,R,ugm-3,63.47234,R,ugm-3,320.04583,R,ugm-3,2.49463,R,ugm-3
05-01-2018,24:00,158.16351,R,ugm-3,61.68749,R,ugm-3,304.20149,R,ugm-3,2.24516,R,ugm-3
06-01-2018,01:00,215.18183,R,ugm-3,56.09462,R,ugm-3,386.03549,R,ugm-3,2.32832,R,ugm-3
06-01-2018,02:00,220.64179,R,ugm-3,49.92649,R,ugm-3,388.23919,R,ugm-3,1.66308,R,ugm-3
06-01-2018,03:00,206.43107,R,ugm-3,46.21143,R,ugm-3,362.73466,R,ugm-3,1.99570,R,ugm-3
06-01-2018,04:00,200.36798,R,ugm-3,47.04975,R,ugm-3,354.27636,R,ugm-3,2.24516,R,ugm-3
06-01-2018,05:00,176.24255,R,ugm-3,53.95139,R,ugm-3,324.18620,R,ugm-3,2.29506,R,ugm-3
06-01-2018,06:00,91.04172,R,ugm-3,54.26498,R,ugm-3,193.86034,R,ugm-3,2.84387,R,ugm-3
06-01-2018,07:00,5.20601,R,ugm-3,20.21189,R,ugm-3,28.19433,R,ugm-3,39.11572,R,ugm-3
06-01-2018,08:00,2.72998,R,ugm-3,16.81400,R,ugm-3,20.99992,R,ugm-3,37.96819,R,ugm-3
06-01-2018,09:00,3.61881,R,ugm-3,26.04833,R,ugm-3,31.59710,R,ugm-3,33.12862,R,ugm-3
06-01-2018,10:00,5.93612,R,ugm-3,38.53677,R,ugm-3,47.63870,R,ugm-3,33.82712,R,ugm-3
06-01-2018,11:00,3.77753,R,ugm-3,26.53412,R,ugm-3,32.32626,R,ugm-3,48.39573,R,ugm-3
06-01-2018,12:00,3.65056,R,ugm-3,20.70106,R,ugm-3,26.29851,R,ugm-3,57.87530,R,ugm-3
06-01-2018,13:00,2.92045,R,ugm-3,20.70250,R,ugm-3,25.18046,R,ugm-3,58.57380,R,ugm-3
06-01-2018,14:00,2.98393,R,ugm-3,23.03570,R,ugm-3,27.61100,R,ugm-3,60.66928,R,ugm-3
06-01-2018,15:00,3.14265,R,ugm-3,27.02148,R,ugm-3,31.84015,R,ugm-3,62.66498,R,ugm-3
06-01-2018,16:00,2.88870,R,ugm-3,26.09838,R,ugm-3,30.52766,R,ugm-3,64.26154,R,ugm-3
06-01-2018,17:00,2.69824,R,ugm-3,34.55705,R,ugm-3,38.69429,R,ugm-3,44.35443,R,ugm-3
06-01-2018,18:00,5.30125,R,ugm-3,48.69770,R,ugm-3,56.82616,R,ugm-3,34.87486,R,ugm-3
06-01-2018,19:00,6.15833,R,ugm-3,61.18902,R,ugm-3,70.63166,R,ugm-3,18.46023,R,ugm-3
06-01-2018,20:00,13.64991,R,ugm-3,71.33395,R,ugm-3,92.26352,R,ugm-3,8.08259,R,ugm-3
06-01-2018,21:00,27.58552,R,ugm-3,70.57735,R,ugm-3,112.87455,R,ugm-3,4.68990,R,ugm-3
06-01-2018,22:00,52.50454,R,ugm-3,70.67412,R,ugm-3,151.17995,R,ugm-3,3.24301,R,ugm-3
06-01-2018,23:00,129.03926,R,ugm-3,69.11371,R,ugm-3,266.97116,R,ugm-3,1.84602,R,ugm-3
06-01-2018,24:00,84.56595,R,ugm-3,64.48602,R,ugm-3,194.15200,R,ugm-3,2.29506,R,ugm-3
07-01-2018,01:00,62.33442,R,ugm-3,49.95650,R,ugm-3,145.53462,R,ugm-3,1.79613,R,ugm-3
07-01-2018,02:00,2.54081,R,ugm-3,25.08142,R,ugm-3,28.97727,R,ugm-3,39.98052,R,ugm-3
07-01-2018,03:00,2.54081,R,ugm-3,25.42176,R,ugm-3,29.31761,R,ugm-3,35.57335,R,ugm-3
07-01-2018,04:00,1.49272,R,ugm-3,29.36254,R,ugm-3,31.65135,R,ugm-3,33.67744,R,ugm-3
07-01-2018,05:00,1.36568,R,ugm-3,22.70197,R,ugm-3,24.79599,R,ugm-3,41.01164,R,ugm-3
07-01-2018,06:00,1.27040,R,ugm-3,20.36847,R,ugm-3,22.31639,R,ugm-3,40.61250,R,ugm-3
07-01-2018,07:00,4.00177,R,ugm-3,26.14744,R,ugm-3,32.28340,R,ugm-3,34.72518,R,ugm-3
07-01-2018,08:00,40.04944,R,ugm-3,56.39696,R,ugm-3,117.80525,R,ugm-3,6.63570,R,ugm-3
07-01-2018,09:00,34.87255,R,ugm-3,52.08261,R,ugm-3,105.55311,R,ugm-3,18.21076,R,ugm-3
07-01-2018,10:00,9.24218,R,ugm-3,35.85841,R,ugm-3,50.02955,R,ugm-3,32.72948,R,ugm-3
07-01-2018,11:00,7.14602,R,ugm-3,29.39718,R,ugm-3,40.35425,R,ugm-3,41.01164,R,ugm-3
07-01-2018,12:00,3.97001,R,ugm-3,24.10550,R,ugm-3,30.19276,R,ugm-3,52.63659,R,ugm-3
07-01-2018,13:00,3.08073,R,ugm-3,21.33638,R,ugm-3,26.06010,R,ugm-3,58.92304,R,ugm-3
07-01-2018,14:00,2.92193,R,ugm-3,23.62189,R,ugm-3,28.10212,R,ugm-3,60.17036,R,ugm-3
07-01-2018,15:00,2.57257,R,ugm-3,22.11555,R,ugm-3,26.06010,R,ugm-3,60.02068,R,ugm-3
07-01-2018,16:00,2.19145,R,ugm-3,26.10330,R,ugm-3,29.46347,R,ugm-3,52.98584,R,ugm-3
07-01-2018,17:00,3.68417,R,ugm-3,37.18487,R,ugm-3,42.83385,R,ugm-3,32.23056,R,ugm-3
07-01-2018,18:00,3.58889,R,ugm-3,33.49002,R,ugm-3,38.99291,R,ugm-3,41.95959,R,ugm-3
07-01-2018,19:00,1.90560,R,ugm-3,29.06980,R,ugm-3,31.99168,R,ugm-3,48.84476,R,ugm-3
07-01-2018,20:00,3.68417,R,ugm-3,21.67523,R,ugm-3,27.32421,R,ugm-3,61.46756,R,ugm-3
07-01-2018,21:00,2.89017,R,ugm-3,17.05833,R,ugm-3,21.48986,R,ugm-3,62.11616,R,ugm-3
07-01-2018,22:00,0.95280,R,ugm-3,14.58352,R,ugm-3,16.04446,R,ugm-3,62.01638,R,ugm-3
07-01-2018,23:00,3.87473,R,ugm-3,18.66034,R,ugm-3,24.60151,R,ugm-3,57.37638,R,ugm-3
07-01-2018,24:00,1.17512,R,ugm-3,22.11901,R,ugm-3,23.92084,R,ugm-3,53.03573,R,ugm-3
08-01-2018,01:00,0.33895,R,ugm-3,8.75208,R,ugm-3,9.27179,R,ugm-3,66.58986,R,ugm-3
08-01-2018,02:00,0.29658,R,ugm-3,8.03899,R,ugm-3,8.49373,R,ugm-3,68.38599,R,ugm-3
08-01-2018,03:00,0.25421,R,ugm-3,7.29348,R,ugm-3,7.68326,R,ugm-3,69.35058,R,ugm-3
08-01-2018,04:00,0.44487,R,ugm-3,9.14079,R,ugm-3,9.82291,R,ugm-3,66.60649,R,ugm-3
08-01-2018,05:00,0.50842,R,ugm-3,7.04958,R,ugm-3,7.82915,R,ugm-3,71.19660,R,ugm-3
08-01-2018,06:00,0.47664,R,ugm-3,9.43246,R,ugm-3,10.16330,R,ugm-3,70.39832,R,ugm-3
08-01-2018,07:00,0.79440,R,ugm-3,11.52253,R,ugm-3,12.74060,R,ugm-3,68.30283,R,ugm-3
08-01-2018,08:00,6.73655,R,ugm-3,36.45115,R,ugm-3,46.78037,R,ugm-3,48.64519,R,ugm-3
08-01-2018,09:00,2.63742,R,ugm-3,21.77761,R,ugm-3,25.82160,R,ugm-3,61.71702,R,ugm-3
08-01-2018,10:00,2.19256,R,ugm-3,15.99217,R,ugm-3,19.35404,R,ugm-3,66.30713,R,ugm-3
08-01-2018,11:00,1.93835,R,ugm-3,13.46426,R,ugm-3,16.43635,R,ugm-3,69.05122,R,ugm-3
08-01-2018,12:00,2.06545,R,ugm-3,16.28432,R,ugm-3,19.45130,R,ugm-3,65.55875,R,ugm-3
08-01-2018,13:00,2.98696,R,ugm-3,19.78281,R,ugm-3,24.36275,R,ugm-3,62.41552,R,ugm-3
08-01-2018,14:00,4.92531,R,ugm-3,26.97403,R,ugm-3,34.52606,R,ugm-3,56.17896,R,ugm-3
08-01-2018,15:00,2.63742,R,ugm-3,23.86863,R,ugm-3,27.91261,R,ugm-3,53.53465,R,ugm-3
08-01-2018,16:00,3.71781,R,ugm-3,27.22076,R,ugm-3,32.92132,R,ugm-3,44.60390,R,ugm-3
08-01-2018,17:00,3.33650,R,ugm-3,25.32539,R,ugm-3,30.44128,R,ugm-3,40.71228,R,ugm-3
08-01-2018,18:00,4.22623,R,ugm-3,30.08831,R,ugm-3,36.56844,R,ugm-3,29.28690,R,ugm-3
08-01-2018,19:00,6.45056,R,ugm-3,35.13904,R,ugm-3,45.02976,R,ugm-3,18.56001,R,ugm-3
08-01-2018,20:00,5.62438,R,ugm-3,28.09040,R,ugm-3,36.71433,R,ugm-3,28.33894,R,ugm-3
08-01-2018,21:00,3.05051,R,ugm-3,24.93722,R,ugm-3,29.61460,R,ugm-3,31.53206,R,ugm-3
08-01-2018,22:00,6.99076,R,ugm-3,24.43922,R,ugm-3,35.15822,R,ugm-3,33.02884,R,ugm-3
08-01-2018,23:00,2.54209,R,ugm-3,19.88139,R,ugm-3,23.77921,R,ugm-3,36.27185,R,ugm-3
08-01-2018,24:00,1.68414,R,ugm-3,16.82037,R,ugm-3,19.40267,R,ugm-3,35.32389,R,ugm-3
09-01-2018,01:00,1.86515,R,ugm-3,16.27067,R,ugm-3,19.13052,R,ugm-3,34.25952,R,ugm-3
09-01-2018,02:00,1.05974,R,ugm-3,14.65224,R,ugm-3,16.27715,R,ugm-3,31.59858,R,ugm-3
09-01-2018,03:00,1.30348,R,ugm-3,15.94838,R,ugm-3,17.94702,R,ugm-3,28.08948,R,ugm-3
09-01-2018,04:00,1.33528,R,ugm-3,16.09418,R,ugm-3,18.14157,R,ugm-3,26.94195,R,ugm-3
09-01-2018,05:00,2.22546,R,ugm-3,21.05205,R,ugm-3,24.46437,R,ugm-3,20.30625,R,ugm-3
09-01-2018,06:00,4.54629,R,ugm-3,25.22676,R,ugm-3,32.19764,R,ugm-3,14.21936,R,ugm-3
09-01-2018,07:00,4.41912,R,ugm-3,26.44312,R,ugm-3,33.21901,R,ugm-3,15.51657,R,ugm-3
09-01-2018,08:00,9.76022,R,ugm-3,33.28236,R,ugm-3,48.24782,R,ugm-3,9.72904,R,ugm-3
09-01-2018,09:00,11.31804,R,ugm-3,35.36833,R,ugm-3,52.72241,R,ugm-3,8.23226,R,ugm-3
09-01-2018,10:00,11.89030,R,ugm-3,34.05314,R,ugm-3,52.28468,R,ugm-3,9.57936,R,ugm-3
09-01-2018,11:00,11.09549,R,ugm-3,33.47226,R,ugm-3,50.48512,R,ugm-3,9.97850,R,ugm-3
09-01-2018,12:00,13.47991,R,ugm-3,34.90687,R,ugm-3,55.57578,R,ugm-3,,,
09-01-2018,13:00,13.00303,R,ugm-3,32.68744,R,ugm-3,52.62514,R,ugm-3,6.08689,R,ugm-3
09-01-2018,14:00,13.38454,R,ugm-3,32.05384,R,ugm-3,52.57650,R,ugm-3,6.53592,R,ugm-3
09-01-2018,15:00,16.11867,R,ugm-3,35.69210,R,ugm-3,60.40705,R,ugm-3,4.88947,R,ugm-3
09-01-2018,16:00,18.91639,R,ugm-3,36.36329,R,ugm-3,65.36801,R,ugm-3,5.08904,R,ugm-3
09-01-2018,17:00,11.50879,R,ugm-3,36.97268,R,ugm-3,54.61925,R,ugm-3,5.83742,R,ugm-3
09-01-2018,18:00,17.19961,R,ugm-3,41.67068,R,ugm-3,68.04304,R,ugm-3,3.89162,R,ugm-3
09-01-2018,19:00,18.28054,R,ugm-3,41.47238,R,ugm-3,69.50215,R,ugm-3,5.63785,R,ugm-3
09-01-2018,20:00,8.77466,R,ugm-3,39.21949,R,ugm-3,52.67378,R,ugm-3,7.33420,R,ugm-3
09-01-2018,21:00,7.50297,R,ugm-3,38.49435,R,ugm-3,49.99875,R,ugm-3,7.23441,R,ugm-3
09-01-2018,22:00,6.19949,R,ugm-3,35.14294,R,ugm-3,44.64869,R,ugm-3,8.78108,R,ugm-3
09-01-2018,23:00,5.91336,R,ugm-3,33.14982,R,ugm-3,42.21684,R,ugm-3,9.77893,R,ugm-3
09-01-2018,24:00,3.78328,R,ugm-3,27.41807,R,ugm-3,33.21901,R,ugm-3,14.51872,R,ugm-3
10-01-2018,01:00,2.52994,R,ugm-3,25.18127,R,ugm-3,29.06046,R,ugm-3,15.10080,R,ugm-3
10-01-2018,02:00,1.51797,R,ugm-3,24.39773,R,ugm-3,26.72524,R,ugm-3,15.83255,R,ugm-3
10-01-2018,03:00,2.87781,R,ugm-3,26.28577,R,ugm-3,30.69835,R,ugm-3,14.81807,R,ugm-3
10-01-2018,04:00,2.68806,R,ugm-3,22.29548,R,ugm-3,26.41712,R,ugm-3,16.86367,R,ugm-3
10-01-2018,05:00,4.90176,R,ugm-3,24.35003,R,ugm-3,31.86596,R,ugm-3,14.06969,R,ugm-3
10-01-2018,06:00,8.72830,R,ugm-3,28.84527,R,ugm-3,42.22848,R,ugm-3,9.92861,R,ugm-3
10-01-2018,07:00,19.03782,R,ugm-3,35.75726,R,ugm-3,64.94818,R,ugm-3,2.59441,R,ugm-3
10-01-2018,08:00,24.00283,R,ugm-3,34.56619,R,ugm-3,71.37002,R,ugm-3,6.48603,R,ugm-3
10-01-2018,09:00,66.60074,R,ugm-3,48.06382,R,ugm-3,150.18354,R,ugm-3,2.94366,R,ugm-3
10-01-2018,10:00,38.01239,R,ugm-3,40.18340,R,ugm-3,98.46825,R,ugm-3,3.49248,R,ugm-3
10-01-2018,11:00,30.26444,R,ugm-3,34.59796,R,ugm-3,81.00278,R,ugm-3,4.88947,R,ugm-3
10-01-2018,12:00,25.26780,R,ugm-3,40.45930,R,ugm-3,79.20272,R,ugm-3,10.22796,R,ugm-3
10-01-2018,13:00,20.17629,R,ugm-3,48.60672,R,ugm-3,79.54327,R,ugm-3,16.11528,R,ugm-3
10-01-2018,14:00,22.26350,R,ugm-3,59.85553,R,ugm-3,93.99242,R,ugm-3,14.86797,R,ugm-3
10-01-2018,15:00,14.42067,R,ugm-3,57.62648,R,ugm-3,79.73788,R,ugm-3,18.41033,R,ugm-3
10-01-2018,16:00,23.02248,R,ugm-3,72.02196,R,ugm-3,107.32261,R,ugm-3,10.82667,R,ugm-3
10-01-2018,17:00,55.75361,R,ugm-3,76.17733,R,ugm-3,161.66501,R,ugm-3,2.19527,R,ugm-3
10-01-2018,18:00,163.81379,R,ugm-3,79.79048,R,ugm-3,330.96813,R,ugm-3,2.04559,R,ugm-3
10-01-2018,19:00,364.53313,R,ugm-3,119.97222,R,ugm-3,678.91522,R,ugm-3,2.74409,R,ugm-3
10-01-2018,20:00,238.00436,R,ugm-3,83.86427,R,ugm-3,448.79921,R,ugm-3,2.34495,R,ugm-3
10-01-2018,21:00,429.39453,R,ugm-3,89.99211,R,ugm-3,748.38788,R,ugm-3,2.69420,R,ugm-3
10-01-2018,22:00,425.44150,R,ugm-3,80.19334,R,ugm-3,732.52787,R,ugm-3,2.99355,R,ugm-3
10-01-2018,23:00,403.96861,R,ugm-3,73.17606,R,ugm-3,692.58596,R,ugm-3,3.04344,R,ugm-3
10-01-2018,24:00,384.01369,R,ugm-3,65.29078,R,ugm-3,654.10356,R,ugm-3,2.79398,R,ugm-3
11-01-2018,01:00,288.39158,R,ugm-3,62.67570,R,ugm-3,504.86995,R,ugm-3,2.72746,R,ugm-3
11-01-2018,02:00,141.51152,R,ugm-3,52.22645,R,ugm-3,269.20774,R,ugm-3,1.99570,R,ugm-3
11-01-2018,03:00,136.61481,R,ugm-3,51.02381,R,ugm-3,260.49693,R,ugm-3,2.19527,R,ugm-3
11-01-2018,04:00,92.57596,R,ugm-3,54.99428,R,ugm-3,196.94211,R,ugm-3,2.24516,R,ugm-3
11-01-2018,05:00,62.18915,R,ugm-3,53.94495,R,ugm-3,149.30032,R,ugm-3,2.04559,R,ugm-3
11-01-2018,06:00,60.33323,R,ugm-3,53.96816,R,ugm-3,146.47782,R,ugm-3,1.99570,R,ugm-3
11-01-2018,07:00,60.39614,R,ugm-3,52.75243,R,ugm-3,145.35856,R,ugm-3,1.94581,R,ugm-3
11-01-2018,08:00,117.42646,R,ugm-3,62.92660,R,ugm-3,242.97799,R,ugm-3,1.94581,R,ugm-3
11-01-2018,09:00,189.77600,R,ugm-3,70.68301,R,ugm-3,361.66882,R,ugm-3,2.19527,R,ugm-3
11-01-2018,10:00,,,,,,,,,,,,
11-01-2018,11:00,,,,,,,,,,,,
11-01-2018,12:00,,,,,,,,,,,,
11-01-2018,13:00,96.71771,R,ugm-3,61.15026,R,ugm-3,209.44868,R,ugm-3,3.92488,R,ugm-3
11-01-2018,14:00,69.77013,R,ugm-3,55.84946,R,ugm-3,162.82883,R,ugm-3,4.09119,R,ugm-3
11-01-2018,15:00,65.11459,R,ugm-3,61.13863,R,ugm-3,160.97961,R,ugm-3,3.59226,R,ugm-3
11-01-2018,16:00,58.57168,R,ugm-3,58.32374,R,ugm-3,148.13239,R,ugm-3,2.14538,R,ugm-3
11-01-2018,17:00,37.21283,R,ugm-3,57.93351,R,ugm-3,114.99239,R,ugm-3,2.14538,R,ugm-3
11-01-2018,18:00,30.98448,R,ugm-3,57.36146,R,ugm-3,104.87033,R,ugm-3,2.34495,R,ugm-3
11-01-2018,19:00,36.64662,R,ugm-3,56.12519,R,ugm-3,112.31588,R,ugm-3,1.34710,R,ugm-3
11-01-2018,20:00,38.84856,R,ugm-3,55.91207,R,ugm-3,115.47903,R,ugm-3,1.39699,R,ugm-3
11-01-2018,21:00,48.56856,R,ugm-3,58.81919,R,ugm-3,133.28995,R,ugm-3,1.34710,R,ugm-3
11-01-2018,22:00,27.77593,R,ugm-3,55.03027,R,ugm-3,97.61944,R,ugm-3,1.24731,R,ugm-3
11-01-2018,23:00,51.49400,R,ugm-3,53.50630,R,ugm-3,132.46267,R,ugm-3,1.39699,R,ugm-3
11-01-2018,24:00,78.23188,R,ugm-3,55.72219,R,ugm-3,175.67606,R,ugm-3,1.49678,R,ugm-3
12-01-2018,01:00,85.64839,R,ugm-3,50.20757,R,ugm-3,181.53326,R,ugm-3,1.46351,R,ugm-3
12-01-2018,02:00,104.70001,R,ugm-3,45.33405,R,ugm-3,205.87183,R,ugm-3,0.73176,R,ugm-3
12-01-2018,03:00,68.23335,R,ugm-3,42.91738,R,ugm-3,147.54040,R,ugm-3,1.24731,R,ugm-3
12-01-2018,04:00,23.91944,R,ugm-3,43.05718,R,ugm-3,79.73315,R,ugm-3,1.19742,R,ugm-3
12-01-2018,05:00,21.93665,R,ugm-3,40.93765,R,ugm-3,74.57337,R,ugm-3,1.09764,R,ugm-3
12-01-2018,06:00,36.91777,R,ugm-3,40.35840,R,ugm-3,96.96485,R,ugm-3,1.14753,R,ugm-3
12-01-2018,07:00,71.41212,R,ugm-3,42.61899,R,ugm-3,152.11605,R,ugm-3,1.39699,R,ugm-3
12-01-2018,08:00,86.20441,R,ugm-3,47.97583,R,ugm-3,180.15408,R,ugm-3,1.44688,R,ugm-3
12-01-2018,09:00,84.53634,R,ugm-3,46.88271,R,ugm-3,176.50329,R,ugm-3,1.39699,R,ugm-3
12-01-2018,10:00,69.30343,R,ugm-3,52.71574,R,ugm-3,158.97952,R,ugm-3,2.39484,R,ugm-3
12-01-2018,11:00,22.94378,R,ugm-3,44.16376,R,ugm-3,79.34373,R,ugm-3,6.33635,R,ugm-3
12-01-2018,12:00,13.97399,R,ugm-3,41.02628,R,ugm-3,62.45276,R,ugm-3,9.23011,R,ugm-3
12-01-2018,13:00,11.89678,R,ugm-3,43.18908,R,ugm-3,61.43054,R,ugm-3,15.31700,R,ugm-3
12-01-2018,14:00,11.42468,R,ugm-3,51.45790,R,ugm-3,68.97550,R,ugm-3,18.11098,R,ugm-3
12-01-2018,15:00,9.37894,R,ugm-3,42.57141,R,ugm-3,56.95225,R,ugm-3,18.65980,R,ugm-3
12-01-2018,16:00,10.63786,R,ugm-3,46.33632,R,ugm-3,62.64747,R,ugm-3,17.56216,R,ugm-3
12-01-2018,17:00,9.72514,R,ugm-3,48.95273,R,ugm-3,63.86440,R,ugm-3,17.96130,R,ugm-3
12-01-2018,18:00,9.34747,R,ugm-3,44.56675,R,ugm-3,58.89933,R,ugm-3,11.82452,R,ugm-3
12-01-2018,19:00,11.73941,R,ugm-3,46.15629,R,ugm-3,64.15647,R,ugm-3,7.33420,R,ugm-3